Flag for Australia Weather past 2 weeks in Kalgoorlie, Western Australia, Australia

Now
63 °F

Partly sunny.


Feels Like: 63 °F
Forecast: 60 / 81 °F
Wind: 10 mph from Southeast

Location: Kalgoorlie Boulder Amo

Current Time: Dec 22, 2014 at 8:08:02 AM

Latest Report: Dec 22, 2014 at 7:00 AM


Visibility: N/A

Pressure: 30.04 "Hg

Humidity: 77%

Dew point: 55 °F

Location of KalgoorlieLocation

Historic Weather in Kalgoorlie — Graph

°F

Kalgoorlie temperature yesterday

Maximum temperature yesterday: 75 °F (at 3:00 PM)
Minimum temperature yesterday: 63 °F (at 4:00 AM)
Average temperature yesterday: 68 °F

Past Weeks' High & Low Weather Summary

 TemperatureHumidityPressure
High104 °F (Dec 20, 2:00 PM)100% (Dec 21, 4:00 AM)30.12 "Hg (Dec 21, 4:00 AM)
Low55 °F (Dec 10, 2:00 AM)2% (Dec 15, 6:30 PM)29.53 "Hg (Dec 20, 4:00 PM)
Average75 °F38%29.88 "Hg
* Reported Dec 7 7:00 AM — Dec 22 7:00 AM, Kalgoorlie, Weather by CustomWeather, © 2014

Note: Actual official high and low records may vary slightly from our data, if they occured in-between our weather recording intervals... More about our weather records

Advertising

Kalgoorlie weather history for previous 24 hours

 ConditionsComfort  
Time TempWeatherWind HumidityBarometerVisibility
7:00 AM
Dec 22
63 °FPartly sunny.10 mph77%30.04 "HgN/A
6:00 AM63 °FSprinkles. Broken clouds.12 mph77%30.04 "HgN/A
5:00 AM63 °FMostly cloudy.9 mph77%30.01 "HgN/A
4:30 AM63 °FMostly cloudy.9 mph77%30.01 "HgN/A
4:00 AM63 °FMostly cloudy.8 mph77%29.98 "HgN/A
3:30 AM63 °FMostly cloudy.9 mph77%29.98 "HgN/A
3:00 AM64 °FMostly cloudy.9 mph73%29.98 "HgN/A
2:30 AM63 °FPassing clouds.9 mph83%29.98 "HgN/A
2:00 AM64 °FClear.10 mph78%29.98 "HgN/A
1:30 AM64 °FPassing clouds.12 mph78%29.98 "HgN/A
1:00 AM64 °FOvercast.10 mph78%30.01 "HgN/A
12:30 AM64 °FOvercast.8 mph78%30.01 "HgN/A
12:00 AM64 °FOvercast.9 mph73%30.01 "HgN/A
11:30 PM
Dec 21
64 °FPassing clouds.10 mph73%30.01 "HgN/A
11:00 PM64 °FClear.10 mph68%30.01 "HgN/A
9:30 PM66 °FClear.10 mph68%30.01 "HgN/A
9:00 PM68 °FClear.13 mph60%30.01 "HgN/A
8:30 PM68 °FClear.10 mph56%29.98 "HgN/A
8:00 PM68 °FClear.14 mph56%29.98 "HgN/A
7:00 PM72 °FClear.12 mph50%29.95 "HgN/A
6:30 PM72 °FPartly cloudy.15 mph50%29.95 "HgN/A
6:00 PM73 °FPartly cloudy.14 mph47%29.92 "HgN/A
5:30 PM73 °FMostly cloudy.13 mph47%29.92 "HgN/A
5:00 PM73 °FMostly cloudy.13 mph50%29.92 "HgN/A
4:00 PM73 °FMostly cloudy.14 mph47%29.89 "HgN/A
3:00 PM75 °FPartly sunny.15 mph44%29.89 "HgN/A
2:00 PM73 °FOvercast.16 mph47%29.92 "HgN/A
1:30 PM73 °FOvercast.14 mph47%29.92 "HgN/A
1:00 PM73 °FOvercast.14 mph50%29.92 "HgN/A
12:30 PM70 °FOvercast.15 mph57%29.92 "HgN/A
12:00 PM68 °FOvercast.16 mph60%29.92 "HgN/A
11:30 AM68 °FOvercast.15 mph64%29.92 "HgN/A
11:00 AM68 °FOvercast.12 mph64%29.92 "HgN/A
10:30 AM68 °FOvercast.14 mph64%29.92 "HgN/A
10:00 AM68 °FOvercast.14 mph64%29.92 "HgN/A
9:00 AM68 °FOvercast.16 mph69%29.92 "HgN/A
8:00 AM63 °FOvercast.15 mph88%29.92 "HgN/A
Weather by CustomWeather, © 2014

See weather overviewHow to use our weather pages